Home > Weather > Birmingham > Past weeks

Flag for United Kingdom Weather for the Past 2 Weeks in Birmingham, England, United Kingdom

Now
50 °F

Low clouds.


Feels Like: 47 °F
Forecast: 44 / 54 °F
Wind: 8 mph from Southwest

Location: Birmingham / Airport

Current Time: May 2, 2016 at 12:56:16 AM

Latest Report: May 2, 2016 at 12:20 AM


Visibility: N/A

Pressure: 30.18 "Hg

Humidity: 100%

Dew Point: 50 °F

Location of BirminghamLocation

Historic Weather in Birmingham — Graph

°F

Birmingham Temperature Yesterday

Maximum temperature yesterday: 55 °F (at 2:50 PM)
Minimum temperature yesterday: 34 °F (at 5:20 AM)
Average temperature yesterday: 47 °F

High & Low Weather Summary for the Past Weeks

 TemperatureHumidityPressure
High61 °F (Apr 21, 2:50 PM)100% (Apr 24, 6:20 AM)30.48 "Hg (Apr 24, 6:20 AM)
Low34 °F (Apr 17, 12:50 AM)37% (Apr 17, 3:50 PM)29.68 "Hg (Apr 29, 5:50 AM)
Average45 °F71%30.08 "Hg
* Reported Apr 16 11:20 PM — May 1 11:20 PM, Birmingham, Weather by CustomWeather, © 2016

Note: Actual official high and low records may vary slightly from our data, if they occured in-between our weather recording intervals... More about our weather records

Advertising

Birmingham Weather History for the Previous 24 Hours

Scroll right to see more
 ConditionsComfort  
Time TempWeatherWind HumidityBarometerVisibility
11:20 PM
Sun, May 1
52 °FLow clouds.9 mph88%30.21 "HgN/A
10:50 PM52 °FLow clouds.8 mph88%30.21 "HgN/A
10:20 PM52 °FOvercast.12 mph88%30.21 "HgN/A
9:50 PM52 °FOvercast.10 mph88%30.21 "HgN/A
9:20 PM52 °FOvercast.9 mph82%30.21 "HgN/A
8:50 PM52 °FOvercast.9 mph82%30.21 "HgN/A
8:20 PM52 °FOvercast.12 mph82%30.21 "HgN/A
7:50 PM52 °FOvercast.9 mph82%30.21 "HgN/A
7:20 PM54 °FOvercast.12 mph77%30.21 "HgN/A
6:50 PM54 °FPartly sunny.10 mph77%30.21 "HgN/A
6:20 PM54 °FPartly sunny.9 mph77%30.24 "HgN/A
5:50 PM54 °FPartly sunny.12 mph77%30.24 "HgN/A
5:20 PM54 °FPartly sunny.12 mph77%30.24 "HgN/A
4:50 PM54 °FPartly sunny.10 mph72%30.24 "HgN/A
4:20 PM54 °FBroken clouds.9 mph72%30.24 "HgN/A
3:50 PM54 °FBroken clouds.13 mph67%30.24 "HgN/A
3:20 PM54 °FLight rain. Scattered clouds.9 mph67%30.24 "HgN/A
2:50 PM55 °FBroken clouds.10 mph59%30.24 "HgN/A
2:20 PM54 °FPartly sunny.12 mph63%30.27 "HgN/A
1:50 PM54 °FPartly sunny.10 mph58%30.27 "HgN/A
1:20 PM54 °FPassing clouds.12 mph54%30.27 "HgN/A
12:50 PM52 °FPassing clouds.13 mph62%30.27 "HgN/A
12:20 PM52 °FScattered clouds.14 mph67%30.27 "HgN/A
11:50 AM50 °FPartly sunny.12 mph71%30.30 "HgN/A
11:20 AM52 °FPassing clouds.13 mph62%30.30 "HgN/A
10:50 AM50 °FPassing clouds.10 mph71%30.30 "HgN/A
10:20 AM50 °FPassing clouds.10 mph76%30.30 "HgN/A
9:50 AM48 °FScattered clouds.10 mph82%30.30 "HgN/A
9:20 AM48 °FPassing clouds.9 mph82%30.30 "HgN/A
8:50 AM46 °FPassing clouds.9 mph82%30.30 "HgN/A
7:50 AM41 °FPassing clouds.6 mph87%30.30 "HgN/A
7:20 AM37 °FSunny.6 mph100%30.30 "Hg10 mi
6:50 AM36 °FSunny.7 mph93%30.30 "Hg10 mi
6:20 AM34 °FClear.6 mph100%30.30 "Hg10 mi
5:20 AM34 °FClear.3 mph93%30.30 "Hg10 mi
4:50 AM36 °FClear.2 mph93%30.30 "Hg10 mi
4:20 AM36 °FClear.5 mph93%30.30 "Hg10 mi
3:20 AM36 °FClear.5 mph93%30.30 "Hg10 mi
2:50 AM37 °FClear.3 mph93%30.30 "Hg10 mi
2:20 AM37 °FClear.3 mph93%30.30 "Hg10 mi
1:50 AM39 °FClear.5 mph87%30.30 "Hg10 mi
1:20 AM39 °FClear.6 mph93%30.30 "Hg10 mi
12:50 AM36 °FClear.5 mph93%30.30 "Hg6 mi
12:20 AM37 °FClear.5 mph93%30.30 "Hg10 mi
Weather by CustomWeather, © 2016

See weather overviewHow to use our weather pages